Weather History for KUCP - August, 2013

Change the Weather History Date:

Monday, August 26, 2013

  Actual Average Record
Temperature  
Mean Temperature 74 °F -  
Max Temperature 86 °F 82 °F 97 °F (1948)
Min Temperature 61 °F 56 °F 40 °F (1944)
Cooling Degree Days 8    
Growing Degree Days 24 (Base 50)    
Moisture  
Dew Point 62 °F    
Average Humidity 70    
Maximum Humidity 93    
Minimum Humidity 46    
Precipitation  
Precipitation 0.02 in - - ()
Sea Level Pressure  
Sea Level Pressure 30.18 in    
Wind  
Wind Speed 4 mph (SW)    
Max Wind Speed 12 mph    
Max Gust Speed 18 mph    
Visibility 10 miles    
Events Rain    
Averages and records for this station are not official NWS values.
T = Trace of Precipitation, MM = Missing Value Source: NWS Daily Summary

Daily Weather History Graph

Daily Weather History Graph

Search for Another Location

Airport or City:

Trip Planner

Search our weather history database for the weather conditions in past years. The results will help you decide how hot, cold, wet, or windy it might be!

Date:

Astronomy

Aug. 26, 2013 Rise Set
Actual Time 6:42 AM EDT 8:03 PM EDT
Civil Twilight 6:13 AM EDT 8:31 PM EDT
Nautical Twilight 5:39 AM EDT 9:06 PM EDT
Astronomical Twilight 5:03 AM EDT 9:42 PM EDT
Moon 11:09 PM EDT (8/26) 12:46 PM EDT (8/26)
Length of Visible Light 14h 18m
Length of Day
13h 20m
Waning Gibbous, 67% of the Moon is Illuminated
Aug 26
Waning Gibbous
Aug 28
Last Quarter
Sep 5
New
Sep 12
First Quarter
Sep 19
Full

Hourly Weather History & Observations

Time (EDT) Temp. Heat Index Dew Point Humidity Pressure Visibility Wind Dir Wind Speed Gust Speed Precip Events Conditions
12:56 AM 65.8 °F - 59.0 °F 79% 30.29 in 10.0 mi South 3.5 mph - N/A   Clear
1:56 AM 63.0 °F - 57.9 °F 84% 30.28 in 10.0 mi Calm Calm - N/A   Clear
2:56 AM 63.9 °F - 57.9 °F 81% 30.26 in 10.0 mi Variable 4.6 mph - N/A   Clear
3:56 AM 61.9 °F - 56.8 °F 84% 30.25 in 10.0 mi South 3.5 mph - N/A   Clear
4:56 AM 63.9 °F - 56.8 °F 78% 30.25 in 10.0 mi Calm Calm - N/A   Clear
5:56 AM 61.9 °F - 56.8 °F 84% 30.25 in 10.0 mi Calm Calm - N/A   Clear
6:56 AM 61.9 °F - 56.8 °F 84% 30.27 in 10.0 mi SSW 4.6 mph - N/A   Clear
7:56 AM 65.8 °F - 57.9 °F 76% 30.27 in 10.0 mi Calm Calm - N/A   Clear
8:56 AM 68.9 °F - 59.9 °F 73% 30.27 in 10.0 mi SSW 3.5 mph - N/A   Clear
9:56 AM 73.9 °F - 61.9 °F 66% 30.25 in 10.0 mi SSW 3.5 mph - N/A   Clear
10:56 AM 79.0 °F - 63.0 °F 58% 30.25 in 10.0 mi Variable 5.8 mph - N/A   Clear
11:56 AM 81.9 °F 83.1 °F 63.0 °F 53% 30.24 in 10.0 mi WSW 9.2 mph - N/A   Clear
12:56 PM 84.9 °F 85.4 °F 61.9 °F 46% 30.20 in 10.0 mi West 5.8 mph - N/A   Clear
1:56 PM 86.0 °F 87.3 °F 64.4 °F 48% 30.14 in 10.0 mi WSW 10.4 mph - N/A   Scattered Clouds
2:56 PM 83.8 °F 85.6 °F 64.9 °F 53% 30.14 in 10.0 mi SW 9.2 mph - N/A   Partly Cloudy
3:56 PM 84.9 °F 86.6 °F 64.9 °F 51% 30.12 in 10.0 mi SW 10.4 mph - N/A   Partly Cloudy
4:56 PM 83.8 °F 85.1 °F 63.9 °F 51% 30.10 in 10.0 mi SW 8.1 mph - N/A   Clear
5:56 PM 83.8 °F 85.6 °F 64.9 °F 53% 30.09 in 10.0 mi SW 8.1 mph - N/A   Clear
6:56 PM 81.9 °F 83.5 °F 64.9 °F 56% 30.08 in 10.0 mi SW 11.5 mph 18.4 mph N/A   Clear
7:56 PM 77.9 °F - 64.9 °F 64% 30.10 in 10.0 mi SW 6.9 mph - N/A   Clear
8:56 PM 72.0 °F - 68.0 °F 87% 30.10 in 10.0 mi Calm Calm - 0.00 in Rain Light Rain
9:56 PM 70.9 °F - 68.9 °F 93% 30.10 in 10.0 mi Calm Calm - 0.02 in   Mostly Cloudy
10:56 PM 71.6 °F - 68.0 °F 88% 30.06 in 10.0 mi SSW 5.8 mph - N/A   Mostly Cloudy
11:56 PM 70.9 °F - 66.9 °F 87% 30.06 in 10.0 mi Calm Calm - N/A   Mostly Cloudy